User: anonymous   Login
Location: Unspecified
(0.0000°N, 0.0000°E)
Time: 10:07:22
(UTC+00:00)
Language:

TBA - TO BE ASSIGNED - Orbit

View from above orbital plane
View from above orbital plane
View from above satellite
View from above satellite

Ground track
Ground track

The orbit is defined by the following mean orbital elements,

1 68594U          26145.42782628 +.00000000 +00000-0 +67982-3 0 00007
2 68594  51.8691 287.3547 0010383 304.9969  55.0042 15.36558513    03
Epoch (UTC): 25 May 2026 10:16:04
Eccentricity: 0.0010383
inclination: 51.8691°
perigee height: 449 km
apogee height: 463 km
right ascension of ascending node: 287.3547°
argument of perigee: 304.9969°
revolutions per day: 15.36558513
mean anomaly at epoch: 55.0042°

The dashed part of the orbit path shows where the satellite is in the earth's shadow,  

DLR